[[{"header":{"parameterUnit":"m.s-1","parameterCategory":1,"la1":30.2991,"la2":30.254,"lo1":-89.0895,"lo2":-89.0444,"dy":0.0017,"dx":0.0017,"nx":28,"ny":28,"refTime":"2024-06-21T09:00:00:Z","depth":0,"parameterNumber":2,"parameterNumberName":"U-component_of_WINDS"},"data":[0,0,0,0,0,0,0,0,0,0,0,0,0,0,0,0,0,0,0,0,0,0,0,0,0,0,0,0,0,0,0,0,0,0,0,0,0,0,0,0,0,0,0,0,0,0,0,0,0,0,0,0,0,0,0,0,0,0,-2.7026,-2.7026,0,-2.7023,-2.7023,-2.7023,-2.6914,-2.6911,-2.6909,-2.6906,-2.691,-2.6912,-2.6915,0,0,0,0,0,0,0,0,0,0,0,0,0,-2.694,-2.6942,-2.7026,-2.7026,-2.7026,-2.7023,-2.7023,-2.7023,-2.6915,-2.6911,-2.6908,-2.6905,-2.6909,-2.6912,-2.6915,0,0,0,0,0,0,0,0,0,0,0,0,0,-2.6962,-2.6943,-2.7026,-2.6971,-2.6966,-2.7023,-2.7023,-2.7023,-2.6915,-2.6911,-2.6907,-2.6903,-2.6908,-2.6912,-2.6916,-2.7027,0,0,-2.6928,-2.693,0,0,0,0,0,0,0,0,-2.6961,-2.6965,-2.6979,-2.6975,-2.6969,-2.6964,-2.6994,-2.7025,-2.6917,-2.6935,-2.6906,-2.6901,-2.6932,-2.6934,-2.6943,-2.7027,-2.7027,-2.6929,-2.6931,-2.6933,-2.6934,0,0,0,0,0,0,0,-2.6959,-2.6964,-2.7025,-2.6979,-2.6974,-2.6948,-2.6946,-2.7,-2.6958,-2.6933,-2.6925,-2.6926,-2.6928,-2.6939,-2.6942,-2.7027,-2.6929,-2.6932,-2.6935,-2.6936,-2.7203,-2.7207,0,0,0,0,0,0,-2.6964,-2.6964,-2.7025,-2.7025,-2.6954,-2.6953,-2.6951,-2.6971,-2.6957,-2.695,-2.693,-2.6921,-2.6934,-2.6937,-2.6942,-2.7072,-2.6933,-2.6937,-2.6939,-2.7198,-2.7204,-2.7209,0,0,0,0,0,0,-2.6963,-2.6971,-2.7025,-2.6992,-2.6997,-2.6959,-2.6982,-2.6973,-2.6983,-2.6954,-2.6946,-2.6948,-2.6931,-2.6936,-2.7006,-2.7071,-2.6939,-2.6943,-2.7193,-2.72,-2.7206,-2.7333,0,0,0,0,0,0,-2.6961,-2.6971,-2.7012,-2.6994,-2.6999,-2.7089,-2.6986,-2.6976,-2.699,-2.6979,-2.6969,-2.6964,-2.6928,-2.7001,-2.701,-2.7074,-2.6946,-2.7187,-2.7196,-2.7204,-2.7323,-2.7343,-2.7361,0,0,0,0,0,-2.6958,-2.7049,-2.7015,-2.7023,-2.705,-2.7093,-2.7096,-2.7051,-2.6996,-2.7038,-2.7018,-2.6964,-2.7061,-2.7009,-2.7019,-2.7085,-2.7183,-2.7194,-2.7204,-2.7314,-2.7339,-2.736,0,0,0,0,0,0,-2.7079,-2.7046,-2.7008,-2.7095,-2.7097,-2.7074,-2.7126,-2.7079,-2.7098,-2.7087,-2.7032,-2.7031,-2.711,-2.7104,-2.7046,-2.7191,-2.7112,-2.7125,-2.7193,-2.7217,-2.7235,-2.7237,-2.6949,0,0,0,0,0,-2.7115,-2.7152,-2.7121,-2.7201,-2.7204,-2.7165,-2.7182,-2.7147,-2.7148,-2.7149,-2.7135,-2.7139,-2.717,-2.7193,-2.722,-2.732,-2.7317,-2.737,-2.7389,-2.7405,-2.7418,-2.7471,-2.7494,-2.7243,-2.7243,-2.7242,0,0,-2.7192,-2.7178,-2.7205,-2.7225,-2.7223,-2.7263,-2.7167,-2.7213,-2.7243,-2.7156,-2.7222,-2.7211,-2.7213,-2.7299,-2.7336,-2.7296,-2.7486,-2.7418,-2.7431,-2.7435,-2.7484,-2.7508,-2.7529,-2.725,-2.7248,-2.7247,0,0,-2.7353,-2.7345,-2.7411,-2.741,-2.7406,-2.7379,-2.7395,-2.7378,-2.7368,-2.7431,-2.7367,-2.7402,-2.7457,-2.746,-2.747,-2.7628,-2.758,-2.7639,-2.7739,-2.7792,-2.7811,-2.7829,-2.7887,-2.7909,-2.7651,-2.7651,-2.7651,0,-2.745,-2.7506,-2.7452,-2.7502,-2.7514,-2.7433,-2.7501,-2.7502,-2.7509,-2.752,-2.7473,-2.754,-2.7535,-2.7621,-2.7659,-2.7669,-2.7687,-2.7641,-2.7812,-2.7829,-2.7845,-2.79,-2.7922,-2.7658,-2.7658,-2.7657,-2.7656,0,-2.7625,-2.7665,-2.7719,-2.7725,-2.7742,-2.7801,-2.7757,-2.778,-2.7743,-2.7721,-2.7787,-2.7778,-2.7802,-2.7819,-2.7784,-2.79,-2.7875,-2.7822,-2.7742,-2.7877,-2.7928,-2.7949,-2.7669,-2.7666,-2.7664,-2.7662,0,0,-2.7867,-2.7839,-2.786,-2.7861,-2.785,-2.7881,-2.7936,-2.7956,-2.7979,-2.7985,-2.8031,-2.8078,-2.8028,-2.8038,-2.8002,-2.8048,-2.8176,-2.7988,-2.7987,-2.8026,-2.8305,-2.8348,-2.8373,-2.8142,-2.8146,-2.8149,-2.8306,0,-2.8023,-2.8115,-2.8066,-2.8165,-2.8202,-2.8124,-2.8172,-2.8171,-2.8151,-2.8181,-2.8159,-2.8194,-2.8124,-2.813,-2.8171,-2.8152,-2.8232,-2.8139,-2.8187,-2.8189,-2.8192,-2.8399,-2.8445,-2.8594,-2.8325,-2.8328,-2.8331,0,-2.822,-2.8232,-2.8334,-2.8314,-2.8328,-2.8372,-2.8387,-2.8415,-2.8412,-2.8394,-2.8405,-2.8357,-2.8411,-2.8329,-2.8403,-2.8341,-2.8357,-2.835,-2.8355,-2.8361,-2.8271,-2.8413,-2.864,-2.8664,-2.8361,-2.8359,-2.8357,0,-2.8388,-2.843,-2.8496,-2.8499,-2.8478,-2.8511,-2.8503,-2.8496,-2.8511,-2.8524,-2.8534,-2.8554,-2.8566,-2.8583,-2.8543,-2.8486,-2.8623,-2.8538,-2.8612,-2.8614,-2.8648,-2.8647,-2.8883,-2.8653,-2.8653,-2.8653,-2.8652,0,-2.8571,-2.8637,-2.8571,-2.8612,-2.8684,-2.8627,-2.87,-2.8684,-2.8678,-2.8716,-2.8649,-2.8687,-2.8629,-2.8661,-2.863,-2.8697,-2.8703,-2.8691,-2.8683,-2.8699,-2.8701,-2.8712,-2.8701,-2.8658,-2.8657,-2.8656,-2.8655,0,-2.8773,-2.8731,-2.8798,-2.8771,-2.8766,-2.882,-2.8797,-2.8835,-2.8808,-2.8857,-2.8865,-2.8826,-2.8859,-2.8819,-2.8851,-2.8829,-2.8921,-2.8896,-2.8922,-2.8916,-2.8994,-2.8988,-2.9248,-2.928,-2.9027,-2.9029,-2.9032,0,-2.8894,-2.8942,-2.8919,-2.8938,-2.8935,-2.8967,-2.8981,-2.8926,-2.8945,-2.8943,-2.8982,-2.9009,-2.9029,-2.9087,-2.9062,-2.9085,-2.9062,-2.9151,-2.9065,-2.908,-2.9066,-2.9065,-2.907,-2.917,-2.9173,-2.9176,-2.9178,0,-2.9114,-2.909,-2.9112,-2.9127,-2.9145,-2.9155,-2.916,-2.918,-2.9123,-2.9147,-2.9179,-2.9194,-2.9224,-2.9253,-2.9269,-2.9263,-2.9213,-2.9204,-2.9223,-2.9242,-2.9256,-2.9252,-2.8973,-2.9199,-2.9197,-2.9196,-2.9194,-2.9194,-2.9281,-2.932,-2.9309,-2.9336,-2.9333,-2.9339,-2.9373,-2.9349,-2.9374,-2.9393,-2.9359,-2.9401,-2.9396,-2.9411,-2.9411,-2.9443,-2.9405,-2.9432,-2.944,-2.9448,-2.9461,-2.9248,-2.9446,-2.9445,-2.9444,-2.9444,-2.9443,0,-2.9499,-2.9487,-2.9512,-2.952,-2.9541,-2.9487,-2.9489,-2.9511,-2.9548,-2.9546,-2.9565,-2.9603,-2.9629,-2.9605,-2.9628,-2.9659,-2.9636,-2.9667,-2.9666,-2.9666,-2.9493,-2.9475,-2.9685,-2.9685,-2.9685,-2.9685,-2.9685,-2.9684,-2.9616,-2.968,-2.9654,-2.9716,-2.9704,-2.9742,-2.9748,-2.9753,-2.9751,-2.9795,-2.9816,-2.9799,-2.9788,-2.9809,-2.9832,-2.9824,-2.9837,-2.9877,-2.9861,-2.9701,-2.9678,-2.9655,-2.9638,-2.9879,-2.9879,-3.0032,-3.0033,-3.0034]},{"header":{"parameterUnit":"m.s-1","parameterCategory":1,"la1":30.2991,"la2":30.254,"lo1":-89.0895,"lo2":-89.0444,"dy":0.0017,"dx":0.0017,"nx":28,"ny":28,"refTime":"2024-06-21T09:00:00:Z","depth":0,"parameterNumber":3,"parameterNumberName":"V-component_of_WINDS"},"data":[0,0,0,0,0,0,0,0,0,0,0,0,0,0,0,0,0,0,0,0,0,0,0,0,0,0,0,0,0,0,0,0,0,0,0,0,0,0,0,0,0,0,0,0,0,0,0,0,0,0,0,0,0,0,0,0,0,0,-3.4588,-3.4589,0,-3.4679,-3.468,-3.4681,-3.4672,-3.467,-3.4669,-3.4668,-3.4754,-3.4758,-3.4761,0,0,0,0,0,0,0,0,0,0,0,0,0,-3.4402,-3.4405,-3.4588,-3.459,-3.4591,-3.4679,-3.468,-3.4681,-3.4672,-3.467,-3.4669,-3.4667,-3.4753,-3.4757,-3.4762,0,0,0,0,0,0,0,0,0,0,0,0,0,-3.4486,-3.4406,-3.4588,-3.4597,-3.4598,-3.4679,-3.468,-3.4682,-3.4672,-3.467,-3.4668,-3.4666,-3.4752,-3.4757,-3.4762,-3.4838,0,0,-3.4779,-3.4781,0,0,0,0,0,0,0,0,-3.4482,-3.4493,-3.4594,-3.4596,-3.4598,-3.4662,-3.4646,-3.4734,-3.4673,-3.4644,-3.4668,-3.4665,-3.4725,-3.4732,-3.4754,-3.4842,-3.4846,-3.4779,-3.4783,-3.4785,-3.4787,0,0,0,0,0,0,0,-3.4476,-3.4489,-3.4624,-3.4596,-3.4598,-3.4594,-3.4604,-3.4663,-3.4695,-3.4646,-3.4646,-3.4657,-3.4726,-3.4749,-3.4756,-3.4847,-3.4779,-3.4784,-3.4787,-3.479,-3.5002,-3.5004,0,0,0,0,0,0,-3.4469,-3.4484,-3.4621,-3.4627,-3.4534,-3.4599,-3.461,-3.4644,-3.4694,-3.47,-3.4659,-3.4656,-3.474,-3.4749,-3.4759,-3.4851,-3.4785,-3.479,-3.4793,-3.5,-3.5003,-3.5005,0,0,0,0,0,0,-3.4465,-3.4481,-3.4618,-3.4556,-3.4573,-3.4605,-3.4642,-3.4647,-3.467,-3.4704,-3.4709,-3.4677,-3.4739,-3.4751,-3.4819,-3.4854,-3.4792,-3.4797,-3.4997,-3.5001,-3.5004,-3.5036,0,0,0,0,0,0,-3.4459,-3.448,-3.451,-3.4557,-3.4576,-3.4678,-3.4645,-3.465,-3.468,-3.4677,-3.4722,-3.4727,-3.4738,-3.4811,-3.4824,-3.486,-3.4802,-3.4994,-3.4999,-3.5003,-3.5031,-3.504,-3.5047,0,0,0,0,0,-3.4453,-3.4514,-3.4511,-3.4528,-3.4615,-3.468,-3.4691,-3.4704,-3.4683,-3.4713,-3.4735,-3.4726,-3.4848,-3.4818,-3.4833,-3.4871,-3.4992,-3.4997,-3.5002,-3.5028,-3.5038,-3.5047,0,0,0,0,0,0,-3.4467,-3.452,-3.4518,-3.4596,-3.4634,-3.4678,-3.4716,-3.4714,-3.4757,-3.4753,-3.4765,-3.4775,-3.4844,-3.4864,-3.483,-3.4947,-3.4917,-3.4925,-3.4931,-3.4941,-3.4948,-3.4941,-3.4806,0,0,0,0,0,-3.448,-3.4531,-3.4573,-3.4637,-3.4657,-3.4684,-3.4712,-3.4719,-3.4758,-3.4773,-3.48,-3.4836,-3.4883,-3.4913,-3.4958,-3.5035,-3.5044,-3.5068,-3.5076,-3.5082,-3.5089,-3.5131,-3.5142,-3.5023,-3.5023,-3.5023,0,0,-3.4506,-3.4541,-3.4571,-3.4641,-3.4672,-3.4722,-3.4697,-3.475,-3.4787,-3.4781,-3.4847,-3.4868,-3.4909,-3.4982,-3.5015,-3.5001,-3.5124,-3.5089,-3.5094,-3.5097,-3.5138,-3.5149,-3.5159,-3.5027,-3.5026,-3.5025,0,0,-3.4579,-3.4611,-3.4669,-3.47,-3.4747,-3.4765,-3.4779,-3.4824,-3.4839,-3.4906,-3.4902,-3.4945,-3.5025,-3.5055,-3.508,-3.5167,-3.516,-3.5181,-3.522,-3.5261,-3.5271,-3.5279,-3.5309,-3.532,-3.5188,-3.5188,-3.5188,0,-3.4605,-3.4682,-3.4698,-3.4754,-3.4784,-3.4783,-3.4841,-3.487,-3.4928,-3.4948,-3.4932,-3.5033,-3.5061,-3.5141,-3.5162,-3.5183,-3.5198,-3.5175,-3.5268,-3.5277,-3.5285,-3.5314,-3.5325,-3.519,-3.519,-3.519,-3.5189,0,-3.4711,-3.4765,-3.4806,-3.4865,-3.49,-3.4956,-3.4979,-3.5012,-3.5017,-3.5036,-3.5104,-3.5138,-3.5189,-3.5209,-3.5213,-3.529,-3.5279,-3.5266,-3.5235,-3.5298,-3.5326,-3.5337,-3.5193,-3.5192,-3.5192,-3.5191,0,0,-3.4794,-3.4863,-3.4878,-3.4905,-3.4957,-3.4998,-3.5054,-3.5107,-3.5135,-3.5176,-3.5222,-3.5291,-3.5279,-3.5308,-3.5315,-3.5352,-3.5417,-3.5334,-3.5335,-3.5347,-3.5504,-3.5513,-3.5525,-3.5414,-3.5416,-3.5418,-3.55,0,-3.4871,-3.4973,-3.4989,-3.5077,-3.5127,-3.5128,-3.5176,-3.5213,-3.5232,-3.5276,-3.5296,-3.5345,-3.5326,-3.5344,-3.538,-3.5402,-3.5449,-3.5396,-3.5456,-3.5458,-3.5444,-3.554,-3.5549,-3.5625,-3.5511,-3.5513,-3.5514,0,-3.4975,-3.5021,-3.5115,-3.5162,-3.5183,-3.5227,-3.5277,-3.5319,-3.5361,-3.5372,-3.5406,-3.541,-3.5466,-3.5435,-3.5512,-3.5476,-3.5502,-3.5516,-3.552,-3.5524,-3.5489,-3.5546,-3.5649,-3.566,-3.5531,-3.553,-3.5528,0,-3.5025,-3.511,-3.5178,-3.5201,-3.5258,-3.5288,-3.5313,-3.5353,-3.5384,-3.5427,-3.5447,-3.5496,-3.5522,-3.5559,-3.5576,-3.5551,-3.5652,-3.5622,-3.5662,-3.5661,-3.5681,-3.568,-3.5789,-3.57,-3.57,-3.5699,-3.5699,0,-3.5109,-3.5166,-3.5201,-3.5242,-3.5306,-3.5325,-3.5387,-3.541,-3.5446,-3.549,-3.5494,-3.5535,-3.5555,-3.5599,-3.5611,-3.5673,-3.5685,-3.5695,-3.5698,-3.5694,-3.5693,-3.571,-3.5705,-3.5702,-3.5702,-3.5701,-3.5701,0,-3.5175,-3.5201,-3.5274,-3.5323,-3.5337,-3.5382,-3.5423,-3.5462,-3.5482,-3.5539,-3.5553,-3.5584,-3.5636,-3.5656,-3.5719,-3.5728,-3.5799,-3.5798,-3.5786,-3.5786,-3.5825,-3.5821,-3.5948,-3.5965,-3.5865,-3.5866,-3.5867,0,-3.5226,-3.5271,-3.5325,-3.5357,-3.5383,-3.5433,-3.5466,-3.5486,-3.5519,-3.5571,-3.5604,-3.5657,-3.57,-3.5783,-3.581,-3.5858,-3.5857,-3.5899,-3.5864,-3.586,-3.5857,-3.5854,-3.5858,-3.5905,-3.5906,-3.5906,-3.5907,0,-3.5314,-3.5326,-3.5374,-3.5427,-3.5467,-3.5509,-3.555,-3.5575,-3.5601,-3.5638,-3.5693,-3.5727,-3.5793,-3.5845,-3.5895,-3.5918,-3.5917,-3.5918,-3.593,-3.5926,-3.5917,-3.5922,-3.5802,-3.5915,-3.5914,-3.5913,-3.5913,-3.5913,-3.5374,-3.5414,-3.5459,-3.5512,-3.5546,-3.5585,-3.5625,-3.5651,-3.5698,-3.5755,-3.5763,-3.5822,-3.5863,-3.593,-3.5956,-3.6001,-3.599,-3.6007,-3.6011,-3.6015,-3.6017,-3.5911,-3.601,-3.601,-3.601,-3.601,-3.601,0,-3.5461,-3.5491,-3.5541,-3.5599,-3.5641,-3.564,-3.5685,-3.572,-3.5772,-3.5812,-3.5855,-3.5918,-3.5969,-3.6001,-3.6052,-3.6082,-3.6082,-3.6094,-3.6091,-3.6097,-3.6024,-3.6009,-3.6093,-3.6093,-3.6093,-3.6093,-3.6093,-3.6093,-3.5511,-3.5579,-3.5596,-3.5679,-3.5708,-3.5768,-3.5794,-3.5829,-3.5861,-3.5932,-3.5976,-3.5997,-3.6033,-3.6087,-3.6134,-3.6142,-3.616,-3.6172,-3.6179,-3.6111,-3.6102,-3.6093,-3.6079,-3.6176,-3.6177,-3.6248,-3.6248,-3.6249]}]]